Location: Unspecified
(0.0000°N, 0.0000°E)
Time: 06:25:13
(UTC+00:00)

Explorer 11/Cluster Stage 4 - Pass Details

Date: 16 September 2019
Orbit: 467 x 1259 km, 28.8° (Epoch: 14 October)

Event Time Altitude Azimuth Distance (km) Brightness Sun altitude
Rises 19:58:47 0° 244° (WSW) 3,980 11.0 -31.0°
Reaches altitude 10° 20:01:51 10° 246° (WSW) 2,916 10.2 -31.7°
Enters shadow 20:08:04 62° 282° (WNW) 1,053 7.2 -33.3°
